軌道要素
Epoch 2017 Nov. 23.0 TT = JDT 2458080.5
T 2017 Nov. 23.37377 TT Rudenko
q 5.3277601 (2000.0) P Q
z -0.0003714 Peri. 10.32044 -0.53513165 +0.51121134
+/-0.0000004 Node 128.17453 +0.70123241 -0.17512640
e 1.0019789 Incl. 121.18573 +0.47107030 +0.84142362
From 2169 observations 2016 Jan. 1-2020 Feb. 15, mean residual 0".7.
|